Total_Precipitation_Accumulation
1.52 1.63 2.01 1.90 1.79 1.82 1.89 1.90 2.01 2.13 2.30 2.54 2.71 2.95 3.12 3.47 3.58 3.67 3.79 4.23 4.67 4.85 5.02 5.27 4.94 4.45 4.15 4.09 3.82 3.33 2.93 2.73 2.57 2.42 2.32 2.28 2.28 2.45 2.74 2.88 2.71 2.07 2.02
1.12 1.31 1.81 1.83 1.73 1.76 1.70 1.72 1.92 2.13 2.27 2.39 2.65 3.00 3.08 3.40 3.60 3.53 3.80 4.31 4.70 4.77 4.73 4.78 4.54 4.03 3.88 3.72 3.27 2.76 2.54 2.59 2.80 2.80 2.72 2.41 2.45 2.69 2.79 2.65 2.76 2.10 1.93
0.97 1.22 1.54 1.71 1.70 1.65 1.52 1.65 1.85 1.97 2.14 2.29 2.56 2.91 3.01 3.27 3.45 3.55 3.92 4.29 4.54 4.59 4.45 4.39 4.17 3.82 3.60 3.11 2.59 2.31 2.32 2.55 2.95 3.24 3.18 2.31 2.00 2.45 2.51 2.36 2.21 1.97 1.86
1.01 1.24 1.42 1.50 1.55 1.55 1.46 1.61 1.83 1.95 2.12 2.27 2.46 2.71 2.86 3.05 3.30 3.68 4.02 4.05 4.31 4.34 4.27 3.96 3.65 3.41 3.05 2.52 2.28 2.20 2.28 2.47 2.93 3.36 3.13 2.15 1.62 1.89 2.01 1.95 2.01 1.78 1.69
0.95 1.14 1.40 1.39 1.46 1.48 1.56 1.81 1.98 2.04 2.16 2.26 2.43 2.67 2.87 2.99 3.14 3.57 3.83 3.74 3.87 3.82 3.57 3.28 3.19 3.03 2.55 2.21 2.08 2.05 2.20 2.61 3.05 2.87 2.25 2.17 2.04 1.96 1.79 1.77 1.79 1.59 1.46
0.86 1.00 1.32 1.37 1.23 1.33 1.69 1.92 1.94 2.00 2.07 2.18 2.40 2.66 2.84 2.84 3.01 3.29 3.26 3.29 3.26 3.20 3.03 2.99 2.93 2.73 2.29 1.97 1.91 2.01 2.27 2.61 2.45 1.73 1.60 1.71 1.69 1.78 1.73 1.95 1.83 1.60 1.48
0.92 0.98 1.17 1.26 1.13 1.25 1.50 1.73 1.78 1.83 1.99 2.15 2.39 2.60 2.75 2.82 2.91 2.93 2.82 2.84 2.86 2.74 2.60 2.61 2.61 2.43 2.17 1.99 1.94 1.95 2.13 2.42 1.79 1.28 1.45 1.73 1.55 1.48 1.55 2.01 1.98 1.71 1.51
0.84 0.82 0.96 1.20 1.17 1.22 1.38 1.65 1.84 1.78 1.88 2.05 2.16 2.40 2.50 2.44 2.46 2.55 2.71 2.75 2.58 2.36 2.24 2.22 2.24 2.21 2.08 2.03 2.03 1.97 2.05 1.99 1.28 1.20 1.33 1.45 1.29 1.31 1.44 1.82 1.98 1.99 1.94
0.77 0.79 0.90 1.03 1.02 1.18 1.50 1.73 1.87 1.90 1.99 2.02 2.04 2.27 2.34 2.30 2.29 2.35 2.50 2.51 2.25 2.05 1.93 1.87 1.75 1.64 1.55 1.67 1.67 1.74 1.94 1.90 1.39 1.30 1.20 1.17 1.04 1.14 1.41 1.62 1.80 2.02 2.13
0.96 0.94 1.01 1.07 1.00 1.02 1.32 1.75 1.99 2.07 2.10 2.16 2.26 2.41 2.48 2.56 2.48 2.45 2.19 2.12 2.08 1.91 1.83 1.76 1.66 1.46 1.38 1.41 1.46 1.61 1.84 1.60 1.49 1.38 1.35 1.22 1.10 1.25 1.52 1.63 1.63 1.68 1.71
1.31 1.23 1.21 1.10 1.05 1.10 1.22 1.50 1.82 2.09 2.36 2.50 2.57 2.53 2.68 2.82 2.71 2.75 2.34 2.34 2.21 2.02 1.97 1.99 1.84 1.58 1.43 1.40 1.64 1.94 1.69 1.37 1.54 1.55 1.46 1.34 1.31 1.56 1.83 1.83 1.75 1.65 1.56
1.64 1.33 1.30 1.17 1.18 1.17 1.09 1.33 1.69 1.77 2.11 2.39 2.53 2.53 2.76 2.96 2.99 2.53 2.85 2.99 2.77 2.62 2.46 2.45 2.47 2.10 1.66 1.60 2.17 2.47 1.56 1.32 1.35 1.40 1.42 1.40 1.66 1.97 2.18 2.02 1.87 1.83 1.72
1.56 1.58 1.57 1.44 1.44 1.44 1.57 1.41 1.60 1.88 2.15 2.23 2.21 2.45 2.86 2.80 2.76 2.62 2.80 3.25 3.27 3.19 3.05 3.05 3.02 2.47 2.26 2.45 2.61 2.33 1.76 1.66 1.66 1.66 1.76 1.89 2.18 2.50 2.56 2.27 2.11 2.04 1.97
1.85 2.10 2.22 1.96 2.00 1.93 1.76 1.63 1.62 1.77 2.04 2.23 2.50 2.61 2.78 3.08 3.14 2.98 2.99 3.11 3.22 3.31 3.71 3.54 3.38 3.04 2.90 2.72 2.60 2.33 2.13 2.09 2.14 2.32 2.54 2.23 2.32 2.70 2.87 2.67 2.52 2.40 2.29
2.54 2.81 3.01 2.61 2.55 2.47 2.48 2.37 2.06 2.20 2.34 2.54 2.82 2.99 3.02 3.28 3.46 3.45 3.29 3.16 2.93 2.97 3.33 3.59 3.46 3.44 3.30 3.08 2.74 2.51 2.43 2.30 2.24 2.44 2.60 2.67 2.64 2.72 3.02 3.21 3.07 2.84 2.69
3.02 3.21 3.38 3.29 3.34 3.21 2.98 3.02 2.98 2.61 2.74 2.79 2.91 3.02 3.14 3.38 3.83 3.95 3.77 3.59 3.16 3.01 3.08 3.40 3.50 3.73 3.62 3.39 2.74 2.58 2.56 2.52 2.52 2.49 2.64 3.16 3.21 2.84 2.93 3.29 3.53 3.58 3.39
3.86 3.82 3.88 3.87 4.18 4.10 3.71 3.38 3.08 2.89 2.86 3.11 3.19 3.26 3.31 3.56 4.01 3.99 3.76 3.37 3.02 2.96 3.19 3.26 3.29 3.56 3.40 3.27 3.12 3.06 2.98 2.84 2.71 2.65 2.74 3.27 3.26 2.92 2.82 2.93 3.31 3.66 3.80
4.72 4.65 4.46 4.05 4.47 4.53 4.27 4.07 3.67 3.40 3.45 3.47 3.21 3.34 3.27 3.44 3.41 3.50 3.22 2.88 2.92 3.07 3.23 3.43 3.37 3.47 3.47 3.53 3.62 3.52 3.28 3.11 2.68 2.47 2.37 2.54 2.83 2.53 2.75 3.01 3.16 3.33 3.79
5.16 5.39 5.35 5.25 5.04 4.84 4.65 4.52 4.32 4.15 3.87 3.50 3.36 3.47 3.18 2.86 2.69 2.91 2.93 2.91 2.80 2.96 3.04 2.83 3.26 3.55 3.59 3.60 3.32 3.38 2.97 2.84 2.64 2.30 2.25 2.23 2.41 2.55 2.62 2.70 2.95 3.04 3.55
5.07 5.66 5.87 5.97 5.70 5.25 4.77 4.42 4.35 4.13 3.88 3.60 3.38 3.40 2.99 2.76 2.56 2.86 2.86 2.84 2.80 2.97 3.09 3.17 3.47 3.62 3.31 3.27 2.96 2.91 2.66 2.29 2.28 2.23 2.05 2.14 2.27 2.17 2.37 2.56 2.93 2.78 3.31
4.61 5.34 5.50 5.88 5.48 4.87 4.33 3.91 3.81 3.67 3.36 3.24 3.11 3.09 3.03 2.82 2.76 3.01 2.87 3.00 2.81 2.87 2.86 2.93 3.22 3.35 2.98 3.03 3.50 3.15 2.54 2.11 2.13 2.02 2.06 2.14 2.12 2.15 2.39 2.74 3.00 3.13 3.19
3.97 4.72 4.80 4.54 4.39 3.98 3.65 3.51 3.36 3.34 3.00 2.82 2.71 2.88 2.71 2.60 2.72 2.73 2.88 2.73 2.66 2.83 2.84 2.91 3.18 3.12 2.81 2.98 3.47 3.65 3.14 2.74 2.38 1.94 1.97 2.01 2.05 2.28 2.36 2.42 2.90 3.26 3.24
3.60 3.72 3.39 3.27 3.38 3.35 3.21 3.15 3.06 3.10 2.91 2.69 2.57 2.66 2.52 2.33 2.40 2.47 2.43 2.48 2.62 2.38 2.64 2.92 3.04 3.05 2.97 2.87 3.08 3.59 3.44 3.10 2.70 2.27 2.07 2.15 2.31 2.46 2.51 2.66 2.75 3.01 3.25
2.76 2.68 2.66 2.67 2.76 2.98 3.00 2.82 2.70 2.49 2.43 2.41 2.35 2.44 2.50 2.25 2.13 2.15 2.16 2.36 2.48 2.45 2.75 2.46 2.60 2.86 3.06 2.86 2.86 2.86 2.92 3.18 3.21 2.78 2.38 2.21 2.29 2.41 2.51 2.53 2.61 2.90 3.14
2.07 2.16 2.17 2.51 2.65 2.69 2.71 2.71 2.78 2.52 2.39 2.38 2.52 2.76 2.70 2.36 2.01 1.85 1.98 2.21 2.37 2.45 2.57 2.50 2.62 2.62 2.65 2.67 2.74 2.74 2.89 3.14 2.97 2.87 2.72 2.47 2.35 2.19 2.27 2.42 2.62 2.86 2.95
1.39 1.55 1.71 2.07 2.34 2.42 2.37 2.38 2.45 2.50 2.54 2.38 2.37 2.49 2.43 2.28 2.07 1.87 1.91 2.18 2.27 2.37 2.44 2.48 2.48 2.41 2.50 2.57 2.61 2.64 2.84 2.89 2.86 2.93 2.74 2.55 2.41 2.13 2.09 2.19 2.38 2.50 2.62